• Em Portugal
  • Lista de países
  • Para 7 dias
  • Temperatura da água
  • Mapas de satélite
  • Mapa do tempo
  • Widgets de tempo
  • user-avatar
    Iniciar Sessão

    Previsão horária em Ashtarak

    Hoje, 27 Abril, Sexta-feira

    Tempo Temperatura Precipitação Vento Pressão Humidade
    00:00 +13°C° 0,1 mm 2 m/s 658 mmHg 72%
    01:00 +12°C° 0 mm 2 m/s 658 mmHg 73%
    02:00 +12°C° 0 mm 2 m/s 658 mmHg 75%
    03:00 +12°C° 0 mm 2 m/s 658 mmHg 76%
    04:00 +12°C° 0 mm 2 m/s 658 mmHg 76%
    05:00 +12°C° 0 mm 2 m/s 658 mmHg 75%
    06:00 +12°C° 0 mm 2 m/s 658 mmHg 75%
    07:00 +14°C° 0 mm 2 m/s 658 mmHg 67%
    08:00 +16°C° 0 mm 1 m/s 659 mmHg 58%
    09:00 +19°C° 0 mm 1 m/s 659 mmHg 50%
    10:00 +19°C° 0 mm 2 m/s 659 mmHg 46%
    11:00 +20°C° 0 mm 2 m/s 659 mmHg 43%
    12:00 +21°C° 0 mm 2 m/s 658 mmHg 39%
    13:00 +21°C° 0,1 mm 2 m/s 658 mmHg 41%
    14:00 +21°C° 0,1 mm 2 m/s 658 mmHg 42%
    15:00 +21°C° 0,1 mm 2 m/s 657 mmHg 44%
    16:00 +20°C° 0,8 mm 3 m/s 657 mmHg 51%
    17:00 +18°C° 0,8 mm 3 m/s 657 mmHg 58%
    18:00 +17°C° 0,8 mm 3 m/s 657 mmHg 66%
    19:00 +16°C° 0,6 mm 3 m/s 657 mmHg 69%
    20:00 +16°C° 0,6 mm 2 m/s 657 mmHg 73%
    21:00 +15°C° 0,6 mm 1 m/s 657 mmHg 77%
    22:00 +14°C° 0,2 mm 1 m/s 657 mmHg 79%
    23:00 +14°C° 0,2 mm 1 m/s 656 mmHg 80%

    Amanhã, 28 Abril, Sábado

    Tempo Temperatura Precipitação Vento Pressão Humidade
    00:00 +13°C° 0,2 mm 1 m/s 656 mmHg 81%
    01:00 +13°C° 0,3 mm 1 m/s 656 mmHg 82%
    02:00 +13°C° 0,3 mm 1 m/s 656 mmHg 82%
    03:00 +12°C° 0,3 mm 1 m/s 656 mmHg 83%
    04:00 +12°C° 0,4 mm 1 m/s 656 mmHg 83%
    05:00 +12°C° 0,4 mm 1 m/s 656 mmHg 83%
    06:00 +12°C° 0,4 mm 0 m/s 656 mmHg 82%
    07:00 +14°C° 0,5 mm 1 m/s 656 mmHg 77%
    08:00 +15°C° 0,5 mm 1 m/s 656 mmHg 72%
    09:00 +16°C° 0,5 mm 1 m/s 656 mmHg 66%
    10:00 +16°C° 0,6 mm 1 m/s 656 mmHg 64%
    11:00 +18°C° 0,6 mm 1 m/s 657 mmHg 62%
    12:00 +19°C° 0,6 mm 1 m/s 657 mmHg 60%
    13:00 +19°C° 0,5 mm 1 m/s 657 mmHg 59%
    14:00 +19°C° 0,5 mm 1 m/s 657 mmHg 58%
    15:00 +18°C° 0,5 mm 2 m/s 657 mmHg 58%
    16:00 +18°C° 0,3 mm 2 m/s 657 mmHg 59%
    17:00 +17°C° 0,3 mm 2 m/s 657 mmHg 61%
    18:00 +17°C° 0,3 mm 2 m/s 657 mmHg 63%
    19:00 +16°C° 0,2 mm 2 m/s 657 mmHg 66%
    20:00 +15°C° 0,2 mm 2 m/s 657 mmHg 69%
    21:00 +14°C° 0,2 mm 2 m/s 658 mmHg 72%
    22:00 +14°C° 0,1 mm 2 m/s 658 mmHg 73%
    23:00 +13°C° 0,1 mm 2 m/s 658 mmHg 74%

    Depois de amanhã, 29 Abril, Domingo

    Tempo Temperatura Precipitação Vento Pressão Humidade
    00:00 +13°C° 0,1 mm 2 m/s 658 mmHg 75%
    01:00 +13°C° 0,2 mm 2 m/s 658 mmHg 76%
    02:00 +12°C° 0,2 mm 2 m/s 658 mmHg 77%
    03:00 +12°C° 0,2 mm 2 m/s 657 mmHg 78%
    04:00 +12°C° 0,2 mm 2 m/s 657 mmHg 78%
    05:00 +12°C° 0,2 mm 1 m/s 658 mmHg 78%
    06:00 +12°C° 0,2 mm 1 m/s 658 mmHg 78%
    07:00 +13°C° 0,3 mm 1 m/s 658 mmHg 74%
    08:00 +14°C° 0,3 mm 1 m/s 658 mmHg 69%
    09:00 +15°C° 0,3 mm 1 m/s 659 mmHg 64%
    10:00 +16°C° 0,4 mm 1 m/s 659 mmHg 62%
    11:00 +18°C° 0,4 mm 1 m/s 659 mmHg 60%
    12:00 +19°C° 0,4 mm 1 m/s 659 mmHg 57%
    13:00 +19°C° 0,5 mm 1 m/s 658 mmHg 57%
    14:00 +19°C° 0,5 mm 1 m/s 658 mmHg 56%
    15:00 +19°C° 0,5 mm 1 m/s 658 mmHg 55%
    16:00 +18°C° 0,7 mm 2 m/s 658 mmHg 58%
    17:00 +17°C° 0,7 mm 2 m/s 658 mmHg 61%
    18:00 +17°C° 0,7 mm 2 m/s 657 mmHg 64%
    19:00 +16°C° 0,8 mm 2 m/s 658 mmHg 68%
    20:00 +15°C° 0,8 mm 2 m/s 658 mmHg 72%
    21:00 +14°C° 0,8 mm 2 m/s 658 mmHg 76%
    22:00 +14°C° 0,5 mm 2 m/s 658 mmHg 77%
    23:00 +14°C° 0,5 mm 2 m/s 658 mmHg 79%

    30 Abril, Segunda-feira

    Tempo Temperatura Precipitação Vento Pressão Humidade
    00:00 +13°C° 0,5 mm 2 m/s 658 mmHg 80%
    01:00 +13°C° 0,3 mm 1 m/s 658 mmHg 81%
    02:00 +13°C° 0,3 mm 1 m/s 658 mmHg 82%
    03:00 +12°C° 0,3 mm 1 m/s 658 mmHg 84%
    04:00 +13°C° 0,3 mm 1 m/s 659 mmHg 83%
    05:00 +13°C° 0,3 mm 1 m/s 659 mmHg 83%
    06:00 +13°C° 0,3 mm 1 m/s 659 mmHg 83%
    07:00 +14°C° 0,4 mm 1 m/s 659 mmHg 79%
    08:00 +14°C° 0,4 mm 1 m/s 660 mmHg 75%
    09:00 +15°C° 0,4 mm 1 m/s 660 mmHg 70%
    10:00 +16°C° 0,4 mm 2 m/s 660 mmHg 67%
    11:00 +16°C° 0,4 mm 2 m/s 660 mmHg 64%
    12:00 +17°C° 0,4 mm 2 m/s 660 mmHg 61%
    13:00 +18°C° 0,3 mm 3 m/s 660 mmHg 60%
    14:00 +18°C° 0,3 mm 3 m/s 659 mmHg 58%
    15:00 +18°C° 0,3 mm 3 m/s 659 mmHg 56%
    16:00 +18°C° 0,2 mm 3 m/s 659 mmHg 58%
    17:00 +17°C° 0,2 mm 3 m/s 659 mmHg 60%
    18:00 +17°C° 0,2 mm 3 m/s 659 mmHg 61%
    19:00 +16°C° 0,1 mm 3 m/s 660 mmHg 65%
    20:00 +13°C° 0,1 mm 3 m/s 660 mmHg 69%
    21:00 +12°C° 0,1 mm 3 m/s 660 mmHg 73%
    22:00 +13°C° 0 mm 2 m/s 660 mmHg 74%
    23:00 +12°C° 0 mm 2 m/s 660 mmHg 75%

    1 Maio, Terça-feira

    Tempo Temperatura Precipitação Vento Pressão Humidade
    00:00 +10°C° 0 mm 2 m/s 660 mmHg 76%
    01:00 +10°C° 0 mm 2 m/s 660 mmHg 76%
    02:00 +10°C° 0 mm 2 m/s 660 mmHg 76%
    03:00 +9°C° 0 mm 2 m/s 660 mmHg 77%
    04:00 +10°C° 0 mm 2 m/s 660 mmHg 76%
    05:00 +11°C° 0 mm 1 m/s 661 mmHg 74%
    06:00 +11°C° 0 mm 1 m/s 661 mmHg 73%
    07:00 +13°C° 0 mm 2 m/s 661 mmHg 65%
    08:00 +15°C° 0 mm 2 m/s 661 mmHg 57%
    09:00 +17°C° 0 mm 2 m/s 662 mmHg 48%
    10:00 +18°C° 0 mm 2 m/s 662 mmHg 45%
    11:00 +19°C° 0 mm 3 m/s 662 mmHg 41%
    12:00 +20°C° 0 mm 3 m/s 662 mmHg 38%
    13:00 +20°C° 0 mm 3 m/s 661 mmHg 37%
    14:00 +21°C° 0 mm 3 m/s 661 mmHg 37%
    15:00 +21°C° 0 mm 3 m/s 661 mmHg 36%
    16:00 +20°C° 0 mm 2 m/s 661 mmHg 39%
    17:00 +19°C° 0 mm 2 m/s 661 mmHg 43%
    18:00 +20°C° 0 mm 1 m/s 661 mmHg 46%
    19:00 +18°C° 0,1 mm 1 m/s 661 mmHg 51%
    20:00 +15°C° 0,1 mm 1 m/s 661 mmHg 56%
    21:00 +14°C° 0,1 mm 1 m/s 661 mmHg 61%
    22:00 +14°C° 0,1 mm 1 m/s 661 mmHg 64%
    23:00 +13°C° 0,1 mm 1 m/s 661 mmHg 67%

    2 Maio, Quarta-feira

    Tempo Temperatura Precipitação Vento Pressão Humidade
    00:00 +13°C° 0,1 mm 1 m/s 661 mmHg 69%
    01:00 +13°C° 0 mm 1 m/s 661 mmHg 70%
    02:00 +12°C° 0 mm 1 m/s 660 mmHg 71%
    03:00 +12°C° 0 mm 1 m/s 660 mmHg 72%
    04:00 +12°C° 0 mm 1 m/s 660 mmHg 70%
    05:00 +12°C° 0 mm 1 m/s 660 mmHg 68%
    06:00 +12°C° 0 mm 1 m/s 661 mmHg 66%
    07:00 +15°C° 0 mm 1 m/s 661 mmHg 57%
    08:00 +17°C° 0 mm 2 m/s 662 mmHg 47%
    09:00 +19°C° 0 mm 2 m/s 662 mmHg 38%
    10:00 +20°C° 0 mm 2 m/s 662 mmHg 36%
    11:00 +21°C° 0 mm 2 m/s 662 mmHg 35%
    12:00 +22°C° 0 mm 3 m/s 662 mmHg 33%
    13:00 +22°C° 0,1 mm 3 m/s 661 mmHg 33%
    14:00 +24°C° 0,1 mm 2 m/s 661 mmHg 33%
    15:00 +24°C° 0,1 mm 2 m/s 661 mmHg 33%
    16:00 +23°C° 0,1 mm 2 m/s 661 mmHg 37%
    17:00 +21°C° 0,1 mm 2 m/s 660 mmHg 41%
    18:00 +22°C° 0,1 mm 1 m/s 660 mmHg 46%
    19:00 +20°C° 0 mm 1 m/s 660 mmHg 51%
    20:00 +17°C° 0 mm 2 m/s 660 mmHg 56%
    21:00 +16°C° 0 mm 2 m/s 660 mmHg 62%
    22:00 +15°C° 0 mm 2 m/s 660 mmHg 65%
    23:00 +15°C° 0 mm 2 m/s 660 mmHg 68%
    Mostrar mais